Location: Chandolas
(44.4033°N, 4.2533°E)
Time: 12:45:23
(UTC+00:00)

SKYMED 3 - Pass Details

Date: 15 November 2019
Orbit: 621 x 623 km, 97.9° (Epoch: 06 December)

Event Time Altitude Azimuth Distance (km) Brightness Sun altitude
Rises 04:58:52 0° 169° (S) 2,890 8.3 -17.8°
Reaches altitude 10° 05:01:03 10° 171° (S) 1,988 7.4 -17.4°
Maximum altitude 05:05:23 76° 257° (WSW) 648 4.4 -16.6°
Drops below altitude 10° 05:09:44 10° 344° (NNW) 2,003 6.9 -15.9°
Enters shadow 05:11:54 - 346° (NNW) 2,895 7.8 -15.5°
